Orange City, IA

2:14 AM CDT on April 20, 2018 (GMT -0500)
Orange City Municipal

Weather History for KORC - October, 2013

Change the Weather History Date:

Wednesday, October 30, 2013

  Actual Average Record
Temperature  
Mean Temperature 44 °F -  
Max Temperature 50 °F 51 °F 89 °F (1950)
Min Temperature 39 °F 34 °F 21 °F (1996)
Degree Days  
Heating Degree Days 20    
Moisture  
Dew Point 43 °F    
Average Humidity 93    
Maximum Humidity 94    
Minimum Humidity 87    
Precipitation  
Precipitation 0.05 in - - ()
Sea Level Pressure  
Sea Level Pressure 29.86 in    
Wind  
Wind Speed 4 mph (NW)    
Max Wind Speed 14 mph    
Max Gust Speed 18 mph    
Visibility 2 miles    
Events Fog , Rain    
Averages and records for this station are not official NWS values.
T = Trace of Precipitation, MM = Missing Value Source: NWS Daily Summary

Daily Weather History Graph

Daily Weather History Graph

Search for Another Location

Airport or City:

Astronomy

Oct. 30, 2013 Rise Set
Actual Time 7:56 AM CDT 6:18 PM CDT
Civil Twilight 7:27 AM CDT 6:47 PM CDT
Nautical Twilight 6:53 AM CDT 7:21 PM CDT
Astronomical Twilight 6:20 AM CDT 7:54 PM CDT
Moon 3:40 AM CDT (10/30) 4:09 PM CDT (10/30)
Length of Visible Light 11h 20m
Length of Day
10h 22m
Waning Crescent, 17% of the Moon is Illuminated
Oct 30
Waning Crescent
Nov 3
New
Nov 9
First Quarter
Nov 17
Full
Nov 25
Last Quarter

Hourly Weather History & Observations

Time (CDT) Temp. Windchill Dew Point Humidity Pressure Visibility Wind Dir Wind Speed Gust Speed Precip Events Conditions
12:15 AM 46.4 °F - 44.6 °F 93% 30.00 in 1.5 mi Calm Calm - 0.02 in   Heavy Drizzle
12:35 AM 46.4 °F - 44.6 °F 93% 29.99 in 1.2 mi Calm Calm - 0.02 in   Drizzle
12:55 AM 46.4 °F - 44.6 °F 93% 29.99 in 1.2 mi Calm Calm - 0.02 in   Light Drizzle
1:15 AM 46.4 °F 45.2 °F 44.6 °F 93% 29.99 in 1.2 mi ENE 3.5 mph - 0.01 in Rain Light Rain
1:35 AM 46.4 °F - 44.6 °F 93% 29.99 in 1.5 mi Calm Calm - 0.01 in   Overcast
1:55 AM 46.4 °F 45.2 °F 44.6 °F 93% 29.98 in 1.8 mi NE 3.5 mph - 0.01 in   Overcast
2:15 AM 46.4 °F 45.2 °F 44.6 °F 93% 29.98 in 1.5 mi NE 3.5 mph - N/A   Overcast
2:35 AM 46.4 °F 45.2 °F 44.6 °F 93% 29.97 in 1.2 mi NE 3.5 mph - N/A   Overcast
2:55 AM 46.4 °F 44.3 °F 44.6 °F 93% 29.97 in 1.0 mi ENE 4.6 mph - N/A   Overcast
3:15 AM 46.4 °F 45.2 °F 44.6 °F 93% 29.96 in 1.2 mi ENE 3.5 mph - N/A   Overcast
3:35 AM 46.4 °F 44.3 °F 44.6 °F 93% 29.96 in 1.0 mi ENE 4.6 mph - N/A   Overcast
3:55 AM 46.4 °F 43.5 °F 44.6 °F 93% 29.95 in 1.0 mi ENE 5.8 mph - N/A   Overcast
4:15 AM 46.4 °F 44.3 °F 44.6 °F 93% 29.94 in 1.2 mi ENE 4.6 mph - N/A   Overcast
4:35 AM 46.4 °F 44.3 °F 44.6 °F 93% 29.93 in 0.8 mi East 4.6 mph - N/A   Overcast
4:55 AM 46.4 °F 45.2 °F 44.6 °F 93% 29.92 in 0.5 mi ENE 3.5 mph - N/A Fog Fog
5:15 AM 46.4 °F - 44.6 °F 93% 29.93 in 0.5 mi Calm Calm - N/A Fog Fog
5:35 AM 46.4 °F - 44.6 °F 93% 29.93 in 0.5 mi Calm Calm - N/A Fog Fog
5:55 AM 46.4 °F - 44.6 °F 93% 29.92 in 0.2 mi Calm Calm - N/A Fog Fog
6:15 AM 46.4 °F - 44.6 °F 93% 29.92 in 0.2 mi Calm Calm - N/A Fog Fog
6:35 AM 46.4 °F 44.3 °F 44.6 °F 93% 29.89 in 0.2 mi ENE 4.6 mph - 0.01 in Fog Fog
6:55 AM 46.4 °F - 44.6 °F 93% 29.91 in 0.2 mi Calm Calm - 0.01 in Fog Fog
7:15 AM 48.2 °F - 46.4 °F 93% 29.91 in 0.2 mi Calm Calm - N/A Fog Fog
7:35 AM 46.4 °F - 44.6 °F 93% 29.92 in 0.2 mi Calm Calm - N/A Fog Fog
7:55 AM 46.4 °F - 44.6 °F 93% 29.93 in 0.2 mi Calm Calm - N/A Fog Fog
8:15 AM 46.4 °F 44.3 °F 44.6 °F 93% 29.96 in 0.2 mi West 4.6 mph - N/A Fog Fog
8:35 AM 46.4 °F 44.3 °F 44.6 °F 93% 29.97 in 0.2 mi West 4.6 mph - N/A Fog Fog
8:55 AM 46.4 °F 45.2 °F 44.6 °F 93% 29.92 in 0.2 mi ESE 3.5 mph - N/A Fog Fog
9:15 AM 46.4 °F 42.9 °F 44.6 °F 93% 29.86 in 0.2 mi NNE 6.9 mph - N/A Rain Light Rain
9:35 AM 48.2 °F - 46.4 °F 93% 29.82 in 0.2 mi East 12.7 mph 18.4 mph N/A   Light Drizzle
9:55 AM 48.2 °F - 46.4 °F 93% 29.79 in 0.2 mi ESE 10.4 mph 16.1 mph N/A Rain Light Rain
10:15 AM 50.0 °F - 46.4 °F 87% 29.81 in 0.2 mi Calm Calm - N/A Rain Light Rain
10:35 AM 50.0 °F - 48.2 °F 94% 29.84 in 0.2 mi WSW 4.6 mph - N/A Fog Fog
10:55 AM 48.2 °F - 46.4 °F 93% 29.87 in 0.2 mi WSW 10.4 mph - N/A Fog Fog
11:15 AM 46.4 °F 41.9 °F 44.6 °F 93% 29.87 in 0.2 mi West 9.2 mph - N/A Fog Fog
11:35 AM 46.4 °F 41.9 °F 44.6 °F 93% 29.88 in 0.2 mi West 9.2 mph - N/A Fog Fog
11:55 AM 46.4 °F 41.9 °F 44.6 °F 93% 29.87 in 0.2 mi West 9.2 mph - N/A Fog Fog
12:15 PM 46.4 °F 44.3 °F 44.6 °F 93% 29.86 in 0.2 mi NW 4.6 mph - N/A Fog Fog
12:35 PM 46.4 °F 41.9 °F 44.6 °F 93% 29.86 in 0.2 mi WNW 9.2 mph - N/A Fog Fog
12:55 PM 46.4 °F 41.5 °F 44.6 °F 93% 29.85 in 0.2 mi WNW 10.4 mph - N/A Fog Fog
1:15 PM 46.4 °F 42.4 °F 44.6 °F 93% 29.84 in 0.2 mi WNW 8.1 mph - N/A Fog Fog
1:35 PM 46.4 °F 42.4 °F 44.6 °F 93% 29.84 in 0.2 mi WNW 8.1 mph - N/A Fog Fog
1:55 PM 46.4 °F 41.1 °F 44.6 °F 93% 29.82 in 0.2 mi NW 11.5 mph - N/A Fog Fog
2:15 PM 46.4 °F 41.9 °F 44.6 °F 93% 29.82 in 0.5 mi NNW 9.2 mph - N/A Fog Fog
2:35 PM 46.4 °F 45.2 °F 44.6 °F 93% 29.80 in 0.8 mi NNE 3.5 mph - N/A   Overcast
2:55 PM 46.4 °F - 44.6 °F 93% 29.79 in 1.2 mi Calm Calm - N/A   Overcast
3:15 PM 46.4 °F 43.5 °F 44.6 °F 93% 29.79 in 0.8 mi WNW 5.8 mph - N/A   Heavy Drizzle
3:35 PM 46.4 °F 42.4 °F 44.6 °F 93% 29.78 in 1.2 mi WNW 8.1 mph - N/A   Drizzle
3:55 PM 44.6 °F 39.2 °F 42.8 °F 93% 29.79 in 1.5 mi WNW 10.4 mph - N/A   Drizzle
4:15 PM 44.6 °F 40.2 °F 42.8 °F 93% 29.79 in 1.2 mi West 8.1 mph - N/A   Heavy Drizzle
4:35 PM 44.6 °F 41.4 °F 42.8 °F 93% 29.78 in 2.0 mi WNW 5.8 mph - 0.01 in   Light Drizzle
4:55 PM 44.6 °F 40.2 °F 42.8 °F 93% 29.79 in 7.0 mi West 8.1 mph - 0.01 in   Overcast
5:15 PM 44.6 °F 41.4 °F 42.8 °F 93% 29.78 in 7.0 mi West 5.8 mph - N/A   Overcast
5:35 PM 44.6 °F 40.2 °F 42.8 °F 93% 29.78 in 7.0 mi WNW 8.1 mph - N/A   Overcast
5:55 PM 42.8 °F 37.5 °F 41.0 °F 93% 29.77 in 7.0 mi WNW 9.2 mph - N/A   Overcast
6:15 PM 42.8 °F 37.5 °F 41.0 °F 93% 29.78 in 5.0 mi NW 9.2 mph - N/A   Overcast
7:55 PM 41.0 °F 33.9 °F 39.2 °F 93% 29.79 in 7.0 mi WNW 12.7 mph - N/A   Overcast
8:15 PM 41.0 °F 34.7 °F 37.4 °F 87% 29.78 in 7.0 mi WNW 10.4 mph - N/A   Overcast
8:35 PM 39.2 °F 31.6 °F 37.4 °F 93% 29.78 in 5.0 mi WNW 12.7 mph 18.4 mph N/A   Overcast
8:55 PM 39.2 °F 31.2 °F 37.4 °F 93% 29.77 in 4.0 mi WNW 13.8 mph - N/A   Overcast
9:15 PM 39.2 °F 32.5 °F 37.4 °F 93% 29.76 in 2.5 mi WNW 10.4 mph - N/A   Overcast
9:35 PM 39.2 °F 33.0 °F 37.4 °F 93% 29.76 in 2.5 mi WNW 9.2 mph - N/A   Overcast
9:55 PM 39.2 °F 32.5 °F 37.4 °F 93% 29.76 in 5.0 mi NW 10.4 mph - N/A   Overcast
10:15 PM 39.2 °F 32.0 °F 37.4 °F 93% 29.76 in 5.0 mi WNW 11.5 mph - N/A   Overcast
10:35 PM 39.2 °F 31.6 °F 37.4 °F 93% 29.76 in 7.0 mi WNW 12.7 mph - N/A   Overcast
10:55 PM 39.2 °F 32.0 °F 37.4 °F 93% 29.77 in 7.0 mi WNW 11.5 mph - N/A   Overcast
11:15 PM 39.2 °F 33.0 °F 37.4 °F 93% 29.76 in 7.0 mi WNW 9.2 mph - N/A   Overcast
11:35 PM 39.2 °F 33.0 °F 37.4 °F 93% 29.76 in 10.0 mi WNW 9.2 mph - N/A   Overcast
11:55 PM 39.2 °F 33.0 °F 35.6 °F 87% 29.75 in 10.0 mi WNW 9.2 mph - N/A   Overcast